Vorticity
8 7 6 6 5 3 5 9 7 7 8 8 7 5 4 7 7 6 6 6 5 4 1 3 5 7 11 9 10 6 -2 2 6 4 3 4 7 9 8 7 6 5 6 6 4 5 7 9 11 8 6 6 6 5 6 6 6 6 6 5 5 5 5 5 6 5 5 4 4 4 3 3 4 5 6 5 5 5 5 6 6 6 5 5 5 4 5 6 6 7 7 7 6 5 4 2 2
8 4 3 6 6 6 8 7 8 9 6 7 8 5 5 8 10 8 9 6 4 8 9 11 10 9 13 11 10 5 1 6 6 5 6 4 7 11 9 6 6 5 6 6 6 7 9 11 10 8 6 5 4 4 5 5 6 5 5 5 4 5 5 6 5 4 3 3 4 3 4 5 6 6 5 5 5 6 7 7 6 6 5 5 5 5 4 4 5 5 6 7 6 5 5 4 3
8 3 3 7 4 3 8 8 6 6 5 6 6 5 7 8 9 9 9 8 7 10 13 10 5 6 10 8 6 6 4 2 1 4 7 6 7 10 8 7 7 6 6 7 8 8 8 8 7 6 5 4 3 4 5 5 5 5 5 4 5 6 5 5 3 3 3 3 4 4 5 6 5 5 5 5 5 6 6 5 4 3 3 4 4 4 5 5 5 5 5 6 7 7 6 5 4
6 4 6 7 3 -0 2 7 8 7 7 6 4 4 6 7 5 8 10 10 8 5 5 5 3 4 6 5 5 6 5 5 5 5 6 7 7 8 8 8 7 7 7 6 6 6 5 5 5 4 4 3 3 3 5 6 5 4 5 5 5 4 3 2 2 4 4 4 4 5 5 5 5 4 4 5 5 5 4 4 4 4 4 4 4 4 4 5 6 6 6 5 5 6 8 8 6
4 4 7 6 4 1 -3 4 7 6 7 5 6 5 3 5 4 6 8 7 5 1 2 4 5 6 7 4 4 4 4 8 10 7 5 6 9 9 8 9 8 8 7 6 4 4 4 3 2 2 3 4 4 4 5 6 5 4 4 4 3 3 3 3 5 6 5 5 5 5 5 5 4 4 5 5 5 4 5 6 7 8 7 7 7 6 4 5 5 6 6 6 5 5 6 8 8
3 3 5 6 6 5 -1 1 6 5 3 2 5 5 2 3 4 4 4 2 1 1 3 5 7 7 7 5 4 6 6 8 8 9 8 6 10 8 6 7 6 5 5 5 4 3 3 2 2 3 4 4 4 5 5 5 5 4 3 2 3 4 5 5 7 7 6 6 5 6 6 5 5 5 5 5 5 6 7 7 8 7 7 10 11 10 7 5 6 5 5 5 6 7 6 6 7
3 4 5 8 8 12 7 0 5 6 2 2 3 3 5 4 3 5 4 2 3 4 4 5 8 5 4 6 8 9 7 7 4 8 11 6 8 7 5 5 3 3 2 4 4 3 3 3 4 4 4 4 4 4 4 5 5 4 4 4 5 6 6 7 7 6 6 6 7 7 6 6 6 5 6 6 7 7 7 6 7 7 9 12 13 14 12 8 8 7 5 4 5 8 8 7 6
4 3 1 3 6 12 12 5 8 7 3 6 5 2 6 9 4 3 3 3 4 5 4 4 7 7 5 6 9 9 8 9 6 7 12 7 5 5 2 1 0 1 2 4 4 3 4 3 4 4 4 3 3 4 6 7 6 5 5 5 6 7 7 7 7 7 7 8 8 7 7 8 8 9 10 10 9 7 8 9 10 11 11 11 11 11 12 10 8 8 7 6 5 6 9 10 8
5 3 0 5 8 9 4 -1 5 4 2 8 6 2 3 7 5 1 4 5 5 6 5 6 8 8 5 7 9 9 8 10 11 9 7 3 2 2 1 1 2 4 5 5 4 4 5 4 4 4 4 4 4 6 8 7 7 6 6 6 7 7 7 7 8 8 8 8 8 9 9 10 12 13 12 10 8 8 10 12 14 14 13 10 10 10 10 10 10 10 9 8 8 6 7 8 10
7 6 6 10 9 11 3 -5 4 1 2 7 1 1 2 5 9 3 6 9 6 5 3 5 8 5 3 8 11 10 9 8 7 5 3 3 3 4 5 6 6 5 4 3 4 5 6 5 5 6 5 5 6 7 8 7 7 7 6 7 7 7 7 8 8 8 9 10 10 8 8 8 9 9 8 8 7 8 10 12 13 14 13 11 10 11 10 9 9 9 9 10 9 9 7 6 8
3 4 4 5 6 14 10 2 13 6 0 8 -0 3 5 2 3 -1 7 11 5 5 4 4 4 4 5 7 9 8 8 8 4 3 3 6 6 5 6 5 4 4 4 4 5 6 6 6 6 7 6 7 8 8 8 8 7 7 7 7 7 7 9 9 8 8 9 8 6 5 5 6 6 7 7 7 6 8 9 11 12 12 13 12 10 10 9 7 6 7 8 8 9 10 10 8 7
3 4 0 3 6 11 14 12 20 10 -2 5 1 4 8 1 -0 3 9 5 0 7 7 5 4 5 6 5 9 7 6 8 5 4 4 5 5 3 3 2 2 4 5 5 5 7 7 7 7 7 7 8 9 8 8 7 6 7 7 8 8 9 10 9 7 8 7 5 4 4 6 7 7 8 7 6 7 9 9 10 10 11 13 13 13 12 12 10 10 10 9 10 10 11 10 9 7
5 2 -2 5 5 5 15 15 10 4 2 8 7 7 9 5 3 8 9 1 3 10 8 7 7 6 5 5 7 6 7 9 6 5 5 5 3 3 3 2 2 4 5 6 6 7 8 8 8 7 8 8 8 8 7 5 7 8 8 9 10 12 12 8 7 7 6 5 5 6 7 7 7 7 7 7 8 8 8 9 9 10 11 11 13 13 13 12 12 11 10 11 11 11 11 10 10
3 1 -2 3 3 1 7 6 -2 -4 4 8 10 11 8 6 4 8 8 4 9 10 6 6 7 7 7 9 7 6 7 8 7 6 7 6 3 3 3 2 4 6 6 6 7 7 8 9 8 7 7 8 8 7 5 6 7 9 10 11 12 13 11 8 7 7 6 7 7 7 7 5 6 7 7 7 7 7 7 7 8 8 8 8 10 10 11 12 11 11 10 10 9 10 10 10 11
-0 1 -2 3 3 0 -3 0 -1 -5 -0 -1 3 8 6 8 7 9 7 3 7 5 2 3 7 8 7 7 8 9 6 5 8 9 8 6 5 4 3 3 5 6 7 6 7 9 10 9 8 7 7 8 7 6 5 7 9 10 10 11 12 11 10 9 8 9 8 7 8 7 6 6 7 8 7 7 6 6 7 7 7 6 7 7 8 8 9 11 11 11 11 10 10 10 10 9 10
4 4 -1 5 0 -4 -4 2 5 -4 -4 -4 2 10 10 12 8 8 9 4 6 3 1 4 7 6 5 5 6 9 8 5 8 11 9 7 5 5 4 4 5 6 8 7 7 10 11 8 6 7 8 8 7 7 7 8 9 10 10 10 10 10 10 10 9 8 7 7 7 6 6 7 8 8 7 6 6 7 7 7 7 6 7 8 8 8 8 9 9 11 10 10 10 10 11 10 9
4 7 4 5 -4 -6 3 7 5 0 3 3 5 11 10 9 6 9 13 11 10 6 5 7 6 5 7 8 6 8 9 7 8 10 10 6 4 4 5 4 4 7 8 8 9 11 9 5 6 8 9 9 9 8 7 8 9 9 9 9 9 10 9 8 8 6 6 6 6 5 6 7 8 8 7 6 6 7 7 6 6 6 7 8 8 8 7 7 7 8 8 7 8 9 10 10 9
-1 8 6 9 2 -6 6 6 -1 6 9 4 4 6 7 8 7 9 11 14 16 14 12 8 7 7 7 8 7 8 8 10 10 9 9 6 4 3 4 4 5 8 9 8 11 11 6 4 7 9 9 9 9 8 6 6 7 7 8 8 8 8 7 6 6 6 6 5 5 4 5 7 7 8 7 7 6 6 6 5 6 6 6 6 5 5 5 5 5 5 5 5 5 6 7 7 8
2 10 4 11 10 -1 10 5 -2 13 4 -4 10 9 4 9 8 7 6 10 16 15 10 6 8 7 5 6 7 9 9 11 11 9 10 8 7 6 5 5 6 9 9 9 11 10 4 5 9 8 8 8 8 6 4 4 4 6 6 6 6 5 5 6 7 7 7 7 6 5 5 7 7 7 7 6 6 5 5 5 5 5 4 3 3 4 4 4 4 4 4 4 3 3 4 4 4
6 11 1 3 3 5 14 1 -5 12 3 -7 10 11 5 6 6 7 5 10 11 5 7 8 9 7 7 9 8 10 12 11 12 11 9 9 10 9 8 6 8 8 8 10 10 7 3 7 9 7 7 7 7 7 4 4 4 5 5 5 5 4 5 6 7 7 8 9 7 6 5 6 6 6 6 5 5 4 4 4 4 4 3 3 3 3 4 4 4 4 4 4 4 4 4 4 4
6 5 2 -3 -3 9 13 6 5 6 6 3 3 7 8 7 10 10 4 8 7 1 6 10 10 8 8 11 8 10 12 11 12 12 8 9 13 12 9 8 10 10 8 10 8 5 6 8 8 7 7 7 7 8 6 6 6 6 6 5 5 5 6 6 7 8 8 9 8 7 5 5 6 5 4 4 3 3 4 4 3 4 4 4 4 4 5 5 4 5 5 5 5 5 5 5 5
7 4 7 3 -4 5 5 6 13 8 8 5 2 5 4 7 9 9 9 12 12 10 11 7 6 6 5 8 9 9 10 10 11 14 8 6 12 10 6 8 10 9 8 9 5 5 9 8 7 6 6 7 7 7 7 7 7 7 7 6 6 5 6 7 8 8 6 6 6 6 5 5 5 4 5 5 3 4 4 3 3 5 5 5 5 5 5 6 6 5 5 6 6 5 6 6 6
4 4 6 5 -7 -3 -2 -3 4 14 16 4 4 6 1 6 4 6 17 17 13 14 14 8 4 5 7 8 8 8 10 12 11 13 10 6 10 7 5 9 9 8 9 8 4 6 10 6 6 6 5 6 6 7 6 7 7 9 8 6 7 7 7 7 7 6 5 5 5 5 5 5 5 5 5 5 4 5 5 3 4 4 4 4 4 5 5 5 5 6 5 5 5 5 5 5 6
0 -0 0 2 -3 -2 -6 -8 -6 7 27 20 10 7 2 4 3 5 10 10 13 10 7 8 7 6 9 9 7 8 8 13 16 14 11 7 8 8 8 11 9 8 10 6 2 7 8 5 5 5 4 5 6 7 6 6 7 8 8 7 7 7 8 7 6 5 5 5 5 5 4 4 4 4 4 4 4 5 5 3 5 4 3 3 4 4 4 4 5 4 5 5 4 5 4 5 5
1 -1 -3 -8 -3 2 -12 -9 -4 -5 24 27 4 3 6 4 4 6 5 11 15 7 4 7 9 8 10 11 9 8 6 13 20 15 12 9 6 10 13 12 9 8 9 4 2 7 7 5 5 3 2 4 6 7 6 6 6 7 8 7 8 8 7 6 5 4 4 4 3 2 2 2 3 3 4 4 3 4 4 4 6 6 5 4 4 5 3 4 5 4 5 5 4 4 4 4 5
6 3 -2 -15 -10 2 -12 -9 -1 -8 11 16 4 10 8 5 5 -1 1 13 11 4 7 7 9 10 9 11 10 8 7 14 21 15 11 10 6 12 16 11 8 9 9 3 2 7 7 5 4 2 2 4 7 8 8 6 5 7 8 7 7 7 7 5 4 4 4 3 1 2 2 3 4 5 5 4 4 5 5 5 5 5 6 5 4 5 4 4 5 5 5 5 5 5 5 5 4
4 3 -2 -11 -12 -4 -7 -1 3 -6 3 8 14 20 4 4 10 -1 -1 11 10 6 8 6 7 10 9 11 10 9 8 12 20 17 10 8 8 13 14 10 9 10 8 3 4 7 7 5 4 2 1 4 8 10 9 7 6 7 7 6 6 6 5 4 4 4 3 2 2 2 3 4 5 5 6 6 5 6 6 4 3 4 6 6 5 4 3 3 4 5 6 6 6 5 5 6 5
-1 1 0 -3 -8 -4 -0 6 3 -8 -0 6 14 20 0 -2 9 5 7 15 11 4 5 7 6 8 10 11 10 9 7 9 19 21 11 7 11 13 11 10 10 9 7 3 5 8 7 5 3 1 2 5 9 9 9 7 6 6 6 5 5 4 4 4 4 3 2 2 3 3 4 5 6 6 6 7 6 6 6 5 5 5 6 6 5 4 3 3 3 5 5 6 7 6 5 6 7
0 1 6 10 2 -0 -0 5 8 -4 -6 -4 3 15 2 -3 7 5 8 15 8 4 7 7 5 6 10 12 10 8 8 8 14 19 13 8 11 12 10 11 9 7 7 4 6 8 6 4 4 2 2 6 9 7 6 7 6 6 5 5 4 3 4 4 3 3 3 3 4 5 5 6 6 7 7 6 6 5 5 5 5 4 4 4 4 5 5 3 2 4 5 5 6 6 6 6 7
1 -4 6 18 13 9 1 -1 7 4 0 -5 -5 8 5 0 5 1 5 12 6 7 9 4 4 4 7 12 11 8 9 10 11 15 13 9 11 11 10 11 9 6 7 7 7 7 5 4 4 2 2 6 8 5 5 6 6 6 5 5 5 4 3 4 4 4 5 5 5 5 6 8 7 7 6 5 4 4 5 5 5 4 4 4 4 4 4 3 2 3 5 5 5 6 7 7 7
3 -3 -1 10 20 21 7 -8 -6 2 6 -3 -10 -3 -1 -1 5 5 12 15 9 11 10 4 4 3 6 12 11 8 9 12 13 12 13 11 10 10 11 12 9 6 7 8 7 6 6 5 4 3 3 6 6 5 5 5 6 6 6 5 5 5 4 4 5 5 5 5 6 6 7 8 7 5 4 4 5 6 5 5 4 4 5 4 4 5 4 4 3 4 4 4 5 5 6 6 7
2 -2 -7 6 33 33 9 -1 4 10 5 -5 -7 -4 -3 1 9 11 12 10 4 8 10 6 4 4 7 10 10 8 9 14 15 14 14 11 10 10 10 10 8 7 7 7 7 6 5 5 5 4 3 3 5 6 6 5 5 5 5 5 5 5 5 5 5 5 5 6 6 6 6 6 5 5 5 5 5 4 3 4 4 3 4 5 5 6 5 5 5 6 5 5 6 5 6 6 6
3 3 -3 6 32 32 11 5 11 12 7 5 6 4 2 0 3 7 11 11 5 6 11 8 5 6 8 9 11 8 7 12 14 16 17 11 10 11 9 8 8 8 7 7 6 5 6 6 5 4 3 2 4 8 8 7 6 5 5 6 6 5 5 5 5 6 5 6 7 6 6 6 5 6 6 4 2 2 2 2 3 2 3 4 5 7 6 6 6 6 7 7 7 6 7 6 6
13 10 7 8 21 23 13 5 8 6 0 6 9 5 4 -3 -2 6 12 14 8 4 11 12 6 5 8 9 11 10 7 8 11 16 17 11 8 9 8 7 8 8 7 8 7 4 5 5 4 4 3 2 3 6 8 9 8 6 6 6 7 6 5 5 5 6 6 6 6 5 5 6 6 6 4 2 1 1 1 2 2 2 3 4 6 8 7 7 7 7 7 8 8 7 7 7 7
10 9 13 10 11 16 13 3 7 9 -2 -1 2 -0 -2 -8 -0 13 16 17 10 3 9 17 13 4 4 10 12 11 7 5 8 14 17 13 10 10 9 8 8 7 6 9 8 6 4 4 4 3 3 4 4 4 5 8 9 8 6 7 8 7 6 6 5 5 6 6 5 5 5 5 5 4 1 0 1 0 1 3 4 4 5 6 8 9 9 9 8 7 7 7 8 8 7 8 8
3 9 9 7 14 16 15 8 1 5 10 6 -1 -6 -4 -2 4 8 8 10 14 11 6 12 16 7 2 7 11 13 10 6 4 9 16 15 12 11 9 9 9 6 6 9 8 7 4 3 4 3 3 4 4 3 4 6 8 8 8 7 7 7 7 7 6 6 6 5 5 4 4 4 2 2 1 1 1 2 2 3 6 8 8 9 11 11 10 9 8 7 8 8 8 9 8 9 9
3 9 7 13 22 5 -1 10 -0 -4 8 6 -3 -5 -4 -1 1 3 1 -3 7 17 5 3 14 12 4 2 8 13 11 9 6 6 11 12 11 11 9 9 9 7 8 8 8 8 6 4 5 4 4 4 4 3 4 7 8 7 7 7 7 7 7 6 5 6 6 4 4 4 2 2 2 1 0 2 3 4 4 6 9 10 9 10 12 13 11 10 9 8 8 10 10 10 10 9 9
3 6 10 12 15 -1 -9 6 2 -4 4 -2 -9 -4 -2 -1 -1 2 6 -3 3 18 10 3 11 14 9 2 4 12 11 10 9 7 8 9 9 10 9 8 7 7 7 6 6 7 7 6 6 6 5 4 4 4 4 7 8 7 7 7 7 6 6 6 5 5 5 3 3 2 2 2 1 0 1 3 5 7 9 12 11 9 8 10 13 15 14 12 11 10 9 9 9 10 10 9 9
5 4 9 10 22 24 5 1 2 1 5 -3 -9 -4 -3 1 -1 -2 7 4 2 13 14 11 13 15 14 5 3 9 12 12 10 7 6 6 7 7 7 7 5 5 6 5 6 7 7 6 5 6 6 6 5 4 5 7 7 7 6 6 6 7 6 5 5 4 3 2 3 2 1 1 1 1 4 6 8 11 13 13 10 8 7 10 13 14 14 12 11 10 9 8 8 9 8 8 9
8 4 8 15 23 20 7 6 4 -0 3 4 8 10 -0 -5 -2 -1 6 4 -0 10 20 19 13 12 13 7 6 9 10 12 12 10 7 6 7 6 6 5 4 6 7 7 7 8 7 4 4 3 4 8 8 5 6 7 6 6 6 6 6 6 6 5 4 3 3 2 2 2 1 1 2 4 6 9 12 13 12 11 9 9 8 9 10 11 10 10 9 9 8 8 8 7 7 7 7
10 4 7 21 16 2 10 13 -2 -4 5 1 4 12 2 -7 -4 1 1 -1 2 14 21 17 8 9 12 7 7 10 8 9 12 14 12 8 7 6 6 4 3 5 7 7 8 8 7 6 5 4 4 8 9 8 7 6 5 6 6 5 5 6 5 6 4 2 3 2 1 2 2 2 4 6 9 10 11 11 10 10 10 8 7 6 6 5 5 5 5 5 5 5 5 4 4 5 5
10 5 7 25 17 -4 5 7 -7 1 11 1 0 6 2 0 2 1 1 0 3 7 11 12 8 10 14 10 8 9 7 7 9 13 15 12 9 7 6 6 6 7 5 5 7 7 7 7 8 7 5 6 8 9 8 6 6 6 6 5 5 6 6 6 6 3 3 3 3 3 3 4 5 7 10 10 9 8 9 9 8 6 6 6 4 2 3 4 5 6 6 5 5 5 5 6 5
8 10 11 22 14 -8 -5 2 -5 -3 1 2 12 13 5 9 10 4 5 6 5 8 11 10 10 12 12 10 10 8 7 6 4 7 11 11 10 8 8 8 8 6 4 4 7 7 7 6 7 8 6 5 7 9 8 7 7 6 6 6 6 5 5 5 5 4 4 4 3 3 4 5 6 9 10 8 7 8 8 6 5 6 7 6 4 3 5 8 9 9 8 7 7 7 7 6 6
14 17 13 16 12 -0 1 4 -3 -6 -7 -8 1 12 8 6 9 10 11 7 7 16 12 0 5 15 15 13 10 7 8 8 5 4 6 8 9 8 8 9 8 7 6 7 8 8 8 8 7 8 9 8 7 10 11 8 8 8 7 7 6 5 6 5 4 5 5 4 3 4 5 5 7 10 10 7 7 7 6 5 4 6 6 4 3 5 7 8 7 7 6 7 7 8 7 6 6
20 19 10 13 13 8 9 7 2 -2 -4 -9 -10 2 4 -2 -0 4 6 4 6 12 2 -7 4 17 19 15 7 6 8 7 6 5 4 6 7 6 6 7 8 10 9 8 8 8 9 9 8 7 8 9 7 8 10 9 9 10 9 8 6 6 7 5 5 5 5 4 4 4 5 6 8 10 9 7 6 5 5 5 5 5 4 3 3 4 6 6 6 6 6 7 7 7 7 7 7
22 15 7 15 13 8 6 2 3 2 -0 -1 -7 -5 -1 -1 1 1 1 4 6 6 -3 -6 6 14 18 16 9 8 9 6 5 4 4 5 3 4 5 5 5 7 8 7 6 6 7 7 7 6 4 4 5 5 6 8 8 8 9 8 7 7 7 6 5 6 6 4 5 5 6 7 8 9 9 6 5 5 5 5 6 6 4 3 4 4 5 7 7 7 8 8 8 8 7 7 7
21 15 8 14 13 9 3 -4 2 6 1 -5 -9 -3 0 -2 5 7 3 3 2 1 -2 -1 7 11 13 15 11 8 7 7 6 3 4 5 4 5 5 5 4 4 6 8 7 5 4 6 6 5 4 5 7 6 5 6 6 7 7 7 8 8 7 6 5 6 6 4 5 7 8 9 9 9 9 5 5 5 3 5 7 7 6 5 5 5 7 8 9 11 11 10 10 8 6 7 8
16 16 11 10 11 10 6 3 5 4 4 1 -7 -0 1 -8 -1 7 3 5 6 2 1 3 8 8 9 13 10 5 4 6 5 3 4 3 2 4 5 5 4 3 4 6 6 6 4 5 6 4 4 5 7 8 7 5 5 5 6 6 8 8 6 6 6 6 5 5 6 6 7 9 10 10 8 5 5 4 3 6 8 7 8 6 5 7 8 9 11 12 10 9 8 7 7 8 8
11 16 13 9 12 8 -0 6 5 -8 3 17 4 -4 -3 -10 -4 4 2 3 5 1 0 8 10 5 7 14 12 8 10 10 7 5 6 6 3 2 4 4 4 4 4 3 3 6 7 6 5 5 5 5 5 8 7 6 5 5 5 7 7 6 6 6 5 5 4 4 5 4 5 9 10 9 8 6 5 3 4 6 7 6 6 5 7 8 6 7 9 8 7 8 8 8 9 6 7
8 15 14 9 11 6 1 11 7 -11 1 24 15 -1 -4 -6 -5 2 5 2 0 -3 -2 8 8 -3 1 12 14 13 14 13 12 9 6 8 7 5 6 7 8 8 5 5 6 5 6 7 6 5 5 5 5 6 6 6 6 5 4 6 6 5 5 5 4 3 3 4 5 4 4 7 10 9 8 7 5 4 6 7 6 6 5 6 8 6 3 5 6 5 7 9 7 6 7 3 8
7 13 15 12 13 11 11 17 10 -5 1 15 12 -1 -4 -3 -6 -1 5 2 -0 -0 2 8 1 -9 -1 11 13 13 11 9 10 11 12 13 10 6 6 7 10 10 6 7 8 6 6 7 7 5 5 5 4 4 5 5 4 5 4 5 5 5 4 4 3 3 2 2 4 5 4 5 9 10 8 7 5 5 7 6 6 7 7 7 7 5 5 5 5 7 7 6 4 4 5 3 7
6 9 9 11 17 17 13 14 13 9 3 4 8 1 -3 -1 -3 2 9 3 -2 -0 5 10 7 6 9 9 11 13 11 8 7 8 9 11 11 9 8 9 8 5 6 9 8 7 7 6 5 6 5 5 4 3 4 4 4 4 4 4 5 6 6 5 3 3 2 2 5 6 4 5 8 9 9 7 6 6 6 5 6 7 6 6 8 9 8 6 8 8 5 2 3 3 5 3 5
8 7 6 8 14 19 16 11 15 18 3 0 15 10 2 4 2 6 11 5 -1 1 4 6 9 15 13 6 10 16 15 13 10 8 4 4 12 14 10 11 9 5 6 9 9 6 5 5 6 6 7 8 7 6 5 4 5 6 6 5 3 4 6 5 3 3 3 3 5 6 5 6 8 10 8 7 6 6 5 5 5 5 4 6 9 9 8 9 9 6 1 2 4 3 4 4 4
6 5 8 11 9 13 19 13 13 15 1 2 23 19 6 7 7 10 12 3 -2 1 1 1 6 10 5 1 5 10 20 22 12 10 12 11 15 14 9 8 7 5 5 6 9 7 5 6 7 9 12 12 10 8 7 5 4 6 9 8 5 4 4 4 3 3 6 5 4 6 6 6 9 11 8 7 7 6 5 6 5 4 6 7 9 9 9 8 6 2 2 4 4 3 3 4 5
5 7 9 11 7 5 11 11 11 13 4 1 20 26 16 13 14 15 13 4 2 6 2 2 12 10 2 6 6 5 22 32 19 13 18 17 11 7 9 11 6 4 6 6 8 8 7 8 11 15 17 16 14 12 10 9 7 7 10 10 7 6 4 4 5 4 6 7 6 7 6 7 11 11 8 8 7 7 7 7 6 7 9 10 10 9 6 4 4 5 5 4 3 4 5 7 9
6 6 5 5 5 5 4 4 8 13 9 -3 2 17 20 19 20 16 12 7 5 7 4 4 14 13 6 14 11 1 12 30 28 16 11 10 8 8 15 20 14 7 5 7 7 7 8 9 11 15 16 17 19 18 13 12 11 8 9 9 8 6 5 5 5 6 9 9 9 9 7 8 11 9 8 8 6 6 7 7 8 10 10 9 7 5 5 5 6 7 5 4 6 9 11 14 16
7 4 4 2 3 7 3 1 6 9 10 2 -4 2 12 22 26 18 13 12 7 4 2 2 9 12 11 11 5 -2 3 20 33 26 11 7 8 12 16 16 13 8 5 6 7 7 8 10 12 14 16 18 18 17 15 13 12 10 7 8 8 7 8 9 11 14 16 13 11 9 8 9 11 9 7 5 5 7 7 7 9 8 6 6 5 6 7 7 5 5 5 7 9 10 12 14 18
9 6 8 8 6 7 3 3 7 4 6 7 -3 -7 1 17 27 24 21 20 16 16 13 7 6 6 6 1 -5 -1 2 9 25 27 16 15 15 12 10 7 7 7 7 8 7 6 9 13 14 13 15 19 18 16 16 15 14 14 12 13 15 16 17 20 21 21 18 12 10 9 8 10 10 8 5 5 7 7 6 7 6 4 5 6 8 7 6 4 3 4 6 7 6 7 8 9 11
Height
5909 5909 5908 5908 5908 5907 5907 5907 5907 5906 5906 5906 5906 5907 5907 5907 5907 5907 5908 5908 5908 5908 5907 5907 5908 5908 5909 5909 5909 5910 5910 5911 5911 5911 5912 5911 5912 5911 5911 5910 5910 5909 5909 5910 5910 5911 5911 5911 5911 5911 5912 5911 5911 5912 5912 5913 5914 5915 5915 5915 5914 5914 5914 5915 5915 5915 5915 5915 5915 5914 5914 5914 5914 5914 5914 5914 5913 5913 5913 5913 5913 5913 5913 5912 5912 5912 5912 5912 5912 5912 5911 5911 5911 5911 5910 5910 5911
5909 5909 5908 5908 5908 5907 5907 5907 5907 5907 5907 5906 5906 5907 5907 5908 5907 5907 5908 5908 5908 5909 5908 5908 5908 5908 5909 5909 5910 5911 5911 5912 5912 5912 5912 5912 5912 5913 5912 5911 5911 5911 5911 5911 5911 5912 5912 5912 5912 5912 5912 5912 5912 5913 5913 5914 5915 5915 5915 5915 5915 5915 5915 5916 5916 5916 5915 5915 5915 5915 5915 5915 5914 5914 5914 5914 5914 5914 5914 5914 5914 5913 5913 5913 5912 5913 5913 5912 5912 5912 5912 5911 5911 5911 5911 5911 5911
5910 5909 5908 5908 5908 5907 5907 5908 5908 5907 5907 5907 5907 5907 5908 5908 5908 5908 5908 5908 5908 5909 5909 5908 5908 5909 5910 5910 5911 5912 5912 5912 5913 5912 5912 5913 5913 5913 5913 5912 5912 5912 5912 5912 5912 5913 5913 5913 5913 5913 5912 5913 5913 5914 5914 5915 5915 5916 5916 5916 5916 5916 5916 5916 5916 5916 5916 5915 5915 5915 5915 5915 5915 5915 5915 5915 5915 5915 5915 5914 5914 5914 5913 5913 5913 5913 5913 5913 5912 5912 5912 5911 5911 5911 5911 5911 5911
5910 5909 5909 5909 5908 5908 5908 5908 5908 5907 5907 5907 5907 5907 5908 5908 5908 5909 5908 5908 5908 5909 5909 5909 5909 5910 5911 5911 5911 5912 5913 5913 5914 5912 5912 5914 5914 5914 5914 5913 5914 5913 5913 5913 5913 5914 5914 5914 5914 5914 5914 5914 5915 5915 5915 5915 5916 5916 5916 5916 5917 5917 5917 5916 5916 5916 5916 5916 5916 5916 5916 5916 5916 5915 5915 5915 5915 5915 5915 5915 5915 5914 5914 5913 5913 5913 5913 5912 5912 5912 5912 5911 5911 5911 5911 5912 5912
5910 5910 5910 5909 5909 5909 5909 5909 5908 5907 5907 5908 5907 5906 5907 5907 5908 5908 5908 5908 5909 5909 5909 5910 5910 5911 5912 5912 5912 5913 5913 5913 5914 5913 5912 5914 5915 5914 5914 5915 5915 5915 5915 5915 5915 5915 5915 5915 5915 5915 5915 5915 5915 5915 5916 5916 5916 5916 5917 5917 5917 5917 5917 5917 5917 5917 5916 5916 5916 5916 5916 5916 5916 5916 5916 5916 5916 5916 5916 5915 5915 5914 5914 5914 5914 5913 5913 5912 5912 5912 5912 5911 5911 5911 5912 5912 5912
5910 5910 5910 5909 5909 5910 5910 5909 5909 5908 5907 5907 5907 5906 5907 5907 5908 5908 5909 5909 5909 5910 5910 5911 5910 5911 5912 5912 5913 5913 5913 5913 5915 5914 5912 5914 5915 5915 5915 5915 5916 5916 5916 5915 5915 5915 5915 5915 5915 5915 5915 5915 5915 5916 5916 5917 5917 5917 5917 5917 5917 5917 5917 5917 5917 5917 5917 5917 5917 5917 5917 5917 5916 5916 5916 5916 5916 5916 5916 5915 5915 5914 5914 5914 5913 5913 5912 5912 5912 5912 5912 5912 5912 5912 5912 5912 5913
5909 5908 5908 5909 5909 5910 5910 5910 5909 5908 5908 5907 5907 5907 5907 5908 5908 5909 5909 5910 5910 5911 5911 5911 5912 5912 5913 5913 5914 5914 5914 5914 5915 5914 5913 5914 5916 5915 5915 5916 5916 5916 5916 5915 5915 5915 5915 5916 5916 5916 5915 5916 5916 5917 5917 5917 5917 5917 5917 5917 5917 5917 5917 5917 5918 5917 5917 5917 5917 5917 5917 5917 5917 5917 5917 5917 5917 5916 5916 5915 5915 5914 5914 5914 5913 5913 5912 5912 5912 5912 5912 5912 5912 5912 5912 5912 5913
5908 5908 5909 5910 5910 5910 5910 5909 5909 5908 5908 5907 5907 5906 5907 5908 5909 5910 5910 5911 5911 5911 5912 5912 5913 5913 5913 5913 5914 5915 5915 5916 5915 5915 5914 5915 5916 5916 5916 5916 5917 5917 5916 5916 5916 5916 5916 5916 5916 5916 5916 5917 5917 5917 5918 5918 5918 5918 5918 5918 5918 5918 5918 5918 5918 5918 5918 5918 5918 5918 5918 5918 5917 5917 5917 5917 5917 5917 5916 5915 5914 5914 5914 5913 5913 5913 5913 5912 5912 5912 5912 5912 5913 5912 5912 5912 5913
5908 5909 5910 5911 5911 5911 5911 5910 5909 5908 5907 5907 5906 5906 5908 5910 5911 5911 5911 5912 5912 5912 5912 5913 5913 5914 5914 5914 5915 5915 5916 5917 5916 5916 5916 5916 5917 5917 5917 5917 5917 5917 5917 5917 5917 5916 5916 5916 5916 5917 5917 5918 5918 5918 5918 5918 5918 5918 5918 5918 5918 5918 5918 5918 5918 5918 5918 5918 5919 5919 5918 5918 5918 5918 5918 5917 5917 5917 5916 5915 5914 5914 5914 5914 5913 5913 5913 5913 5913 5913 5913 5913 5913 5913 5913 5913 5913
5909 5909 5909 5910 5911 5911 5911 5910 5910 5907 5907 5907 5905 5906 5908 5911 5913 5912 5912 5912 5912 5912 5913 5913 5914 5914 5914 5914 5915 5915 5916 5917 5916 5916 5917 5917 5917 5918 5918 5918 5918 5918 5918 5918 5917 5917 5917 5917 5917 5918 5918 5918 5918 5918 5918 5918 5918 5918 5918 5918 5918 5918 5919 5919 5919 5919 5919 5919 5919 5919 5919 5919 5919 5918 5918 5918 5917 5917 5916 5915 5914 5914 5914 5914 5914 5914 5914 5914 5913 5913 5913 5913 5913 5913 5913 5913 5913
5909 5908 5909 5909 5910 5910 5910 5910 5910 5907 5907 5907 5905 5906 5908 5911 5913 5913 5913 5913 5913 5913 5914 5914 5914 5915 5915 5915 5916 5916 5916 5917 5917 5916 5917 5917 5918 5918 5918 5919 5919 5918 5918 5918 5918 5917 5917 5918 5918 5918 5919 5919 5918 5918 5918 5918 5918 5919 5919 5918 5918 5919 5919 5919 5919 5919 5920 5920 5920 5919 5919 5919 5919 5919 5918 5918 5917 5917 5916 5915 5915 5915 5915 5915 5914 5914 5914 5914 5914 5914 5914 5914 5913 5913 5913 5913 5913
5908 5908 5909 5910 5909 5909 5909 5909 5909 5907 5906 5906 5906 5908 5909 5911 5913 5913 5913 5913 5914 5914 5914 5915 5915 5915 5915 5915 5916 5917 5917 5917 5917 5917 5917 5917 5918 5918 5918 5918 5919 5919 5918 5918 5918 5918 5918 5918 5918 5918 5918 5918 5918 5918 5918 5919 5919 5919 5919 5919 5919 5919 5919 5919 5920 5920 5920 5920 5920 5920 5920 5919 5919 5919 5919 5918 5918 5917 5916 5916 5916 5916 5916 5915 5915 5915 5915 5915 5915 5914 5914 5914 5914 5914 5913 5913 5913
5908 5909 5910 5910 5908 5908 5908 5908 5909 5907 5906 5907 5908 5909 5909 5911 5912 5913 5914 5914 5914 5914 5915 5915 5915 5915 5916 5916 5916 5917 5918 5918 5917 5917 5917 5917 5918 5918 5918 5918 5918 5919 5918 5918 5918 5918 5917 5917 5918 5918 5918 5918 5918 5918 5919 5919 5920 5920 5919 5919 5919 5920 5920 5920 5920 5920 5920 5920 5920 5920 5920 5920 5920 5919 5919 5919 5918 5918 5917 5917 5917 5917 5917 5917 5916 5916 5916 5916 5915 5915 5915 5915 5914 5914 5914 5914 5913
5909 5911 5911 5910 5908 5908 5908 5908 5909 5907 5907 5909 5910 5909 5909 5912 5913 5913 5914 5914 5914 5914 5915 5915 5915 5916 5916 5916 5916 5917 5918 5918 5918 5918 5917 5917 5917 5917 5918 5918 5918 5918 5918 5918 5917 5917 5917 5917 5917 5918 5918 5918 5919 5919 5920 5920 5920 5920 5920 5920 5920 5920 5920 5921 5921 5921 5921 5921 5921 5921 5921 5920 5920 5920 5920 5919 5919 5918 5918 5918 5918 5918 5918 5918 5918 5917 5917 5917 5916 5916 5916 5915 5915 5915 5915 5914 5914
5911 5911 5911 5910 5909 5908 5908 5909 5909 5908 5908 5909 5909 5909 5909 5912 5914 5914 5913 5913 5914 5914 5915 5915 5915 5915 5915 5916 5916 5916 5917 5918 5918 5918 5918 5918 5918 5918 5918 5918 5918 5918 5918 5918 5917 5917 5917 5917 5917 5918 5919 5919 5920 5920 5920 5921 5921 5921 5921 5921 5921 5921 5921 5921 5921 5921 5921 5921 5921 5921 5921 5921 5921 5920 5920 5920 5919 5919 5919 5919 5919 5919 5919 5919 5919 5918 5918 5918 5917 5917 5917 5916 5916 5916 5915 5915 5914
5911 5911 5911 5910 5909 5908 5909 5909 5909 5909 5909 5909 5909 5910 5909 5911 5914 5914 5914 5914 5914 5914 5914 5914 5915 5915 5915 5915 5916 5916 5917 5918 5918 5918 5918 5918 5918 5918 5918 5918 5918 5918 5918 5918 5918 5918 5918 5918 5918 5919 5920 5920 5920 5921 5921 5921 5921 5921 5922 5922 5922 5922 5922 5922 5922 5922 5922 5922 5922 5922 5922 5922 5921 5921 5921 5920 5920 5920 5920 5920 5920 5920 5920 5920 5920 5919 5919 5919 5919 5918 5918 5917 5917 5917 5916 5916 5915
5910 5911 5911 5911 5909 5909 5910 5910 5910 5910 5910 5910 5910 5910 5910 5911 5912 5913 5915 5914 5914 5913 5913 5914 5914 5915 5915 5915 5916 5916 5917 5917 5918 5918 5918 5918 5918 5918 5919 5919 5919 5919 5919 5919 5919 5919 5919 5919 5919 5920 5920 5920 5921 5921 5922 5922 5922 5922 5922 5922 5922 5923 5923 5923 5923 5923 5923 5923 5923 5923 5923 5923 5923 5922 5922 5921 5921 5922 5922 5922 5922 5921 5921 5922 5921 5921 5921 5921 5920 5920 5919 5918 5918 5918 5918 5917 5917
5910 5910 5910 5911 5910 5909 5911 5911 5912 5912 5911 5910 5910 5909 5910 5911 5912 5913 5913 5913 5914 5913 5913 5913 5914 5914 5915 5915 5916 5916 5916 5916 5917 5917 5918 5918 5918 5919 5919 5919 5919 5919 5920 5920 5919 5919 5919 5920 5920 5920 5920 5921 5921 5922 5922 5922 5923 5923 5923 5923 5923 5923 5924 5924 5924 5924 5924 5924 5924 5924 5924 5924 5923 5923 5923 5923 5923 5924 5924 5923 5923 5923 5923 5923 5923 5923 5922 5922 5922 5922 5921 5920 5920 5919 5919 5919 5918
5910 5910 5910 5911 5911 5911 5911 5911 5912 5911 5911 5910 5910 5910 5910 5911 5912 5913 5913 5913 5913 5913 5912 5912 5913 5914 5914 5915 5915 5915 5916 5916 5916 5917 5917 5918 5918 5918 5919 5919 5919 5919 5920 5920 5920 5920 5920 5920 5920 5921 5921 5921 5922 5922 5923 5923 5923 5924 5924 5924 5924 5924 5924 5925 5925 5925 5925 5925 5925 5925 5925 5925 5924 5924 5925 5925 5925 5925 5925 5925 5924 5924 5925 5925 5924 5924 5924 5924 5924 5924 5923 5922 5921 5921 5921 5921 5920
5909 5910 5910 5911 5912 5912 5911 5911 5911 5910 5910 5910 5910 5910 5910 5910 5912 5913 5913 5913 5913 5912 5912 5912 5913 5913 5914 5914 5914 5914 5915 5915 5916 5916 5917 5917 5918 5918 5918 5919 5919 5919 5920 5920 5920 5920 5921 5921 5921 5921 5922 5922 5923 5923 5923 5924 5924 5924 5925 5925 5925 5925 5925 5925 5925 5925 5926 5926 5925 5926 5926 5926 5926 5926 5926 5926 5927 5927 5926 5926 5926 5926 5926 5926 5925 5925 5925 5925 5925 5925 5924 5924 5923 5923 5923 5922 5922
5909 5910 5911 5911 5911 5912 5912 5912 5911 5910 5909 5909 5909 5909 5909 5909 5911 5912 5913 5914 5913 5912 5912 5912 5913 5913 5914 5914 5913 5913 5914 5915 5915 5916 5916 5916 5917 5917 5918 5918 5918 5919 5920 5920 5920 5921 5921 5921 5922 5922 5922 5923 5923 5924 5924 5924 5925 5925 5925 5926 5926 5926 5926 5926 5926 5926 5926 5926 5927 5927 5927 5927 5927 5927 5928 5928 5928 5928 5928 5928 5928 5928 5927 5927 5927 5927 5927 5927 5927 5926 5926 5926 5925 5924 5924 5924 5923
5909 5910 5911 5910 5910 5911 5912 5912 5911 5911 5909 5909 5908 5909 5908 5907 5909 5911 5911 5913 5912 5911 5912 5912 5912 5912 5913 5913 5912 5912 5913 5914 5914 5915 5915 5915 5916 5916 5917 5917 5918 5919 5919 5920 5920 5921 5921 5922 5922 5923 5923 5923 5924 5924 5925 5925 5925 5925 5926 5926 5926 5927 5927 5927 5927 5927 5927 5927 5928 5928 5928 5928 5928 5929 5929 5929 5929 5929 5929 5929 5929 5929 5928 5928 5928 5928 5928 5928 5928 5927 5927 5927 5926 5926 5925 5925 5924
5908 5910 5910 5909 5908 5909 5910 5911 5911 5912 5911 5911 5910 5909 5908 5906 5907 5909 5911 5913 5912 5911 5911 5911 5911 5911 5911 5911 5911 5911 5912 5913 5913 5914 5914 5914 5915 5915 5916 5917 5917 5918 5919 5920 5920 5921 5921 5922 5923 5923 5924 5924 5924 5925 5925 5925 5926 5926 5926 5927 5927 5927 5927 5928 5928 5928 5928 5928 5929 5929 5929 5930 5930 5930 5930 5930 5930 5930 5930 5930 5930 5930 5930 5929 5929 5929 5929 5929 5929 5928 5928 5928 5927 5927 5926 5926 5925
5910 5910 5909 5908 5907 5908 5909 5910 5911 5912 5912 5912 5911 5910 5909 5907 5908 5909 5911 5912 5911 5909 5910 5911 5911 5910 5910 5911 5911 5911 5911 5911 5912 5913 5913 5913 5914 5915 5915 5916 5917 5918 5919 5920 5920 5921 5922 5922 5923 5924 5924 5924 5925 5925 5926 5926 5926 5926 5927 5927 5928 5928 5928 5929 5929 5929 5930 5930 5930 5930 5930 5930 5930 5931 5930 5931 5931 5930 5930 5931 5930 5930 5930 5930 5930 5930 5930 5930 5929 5929 5929 5928 5928 5927 5927 5927 5926
5908 5908 5907 5906 5906 5907 5908 5910 5912 5912 5912 5913 5912 5910 5910 5909 5908 5910 5911 5911 5909 5909 5909 5910 5910 5909 5909 5910 5910 5911 5911 5911 5911 5911 5912 5913 5914 5915 5915 5916 5917 5918 5919 5920 5920 5921 5922 5923 5923 5924 5924 5925 5925 5926 5926 5926 5927 5927 5927 5928 5928 5929 5929 5929 5930 5930 5931 5931 5931 5931 5931 5931 5931 5931 5931 5931 5931 5931 5931 5931 5931 5931 5931 5931 5931 5931 5930 5930 5930 5930 5930 5929 5929 5928 5928 5927 5927
5905 5905 5904 5903 5904 5905 5907 5909 5912 5912 5912 5913 5913 5911 5910 5909 5908 5909 5911 5910 5909 5909 5909 5909 5909 5909 5908 5909 5909 5910 5910 5910 5910 5910 5911 5913 5913 5914 5915 5916 5917 5918 5919 5920 5921 5921 5922 5923 5924 5924 5924 5925 5925 5926 5926 5927 5927 5928 5928 5929 5929 5929 5930 5930 5931 5931 5931 5931 5931 5932 5932 5932 5932 5932 5932 5932 5932 5932 5932 5932 5932 5932 5932 5932 5932 5931 5931 5931 5931 5931 5930 5930 5929 5929 5928 5928 5927
5903 5903 5901 5901 5901 5903 5905 5907 5910 5911 5911 5912 5912 5911 5910 5909 5908 5909 5910 5909 5909 5908 5908 5908 5908 5908 5908 5908 5909 5909 5910 5910 5909 5909 5911 5912 5913 5914 5915 5916 5917 5918 5919 5920 5921 5922 5922 5923 5924 5924 5925 5925 5925 5926 5926 5927 5928 5928 5929 5929 5930 5930 5930 5931 5931 5931 5932 5932 5932 5932 5932 5933 5933 5933 5933 5933 5933 5933 5934 5934 5933 5933 5933 5933 5933 5932 5932 5932 5932 5931 5931 5931 5930 5929 5929 5928 5927
5902 5901 5901 5900 5899 5900 5902 5905 5908 5910 5910 5911 5911 5910 5911 5910 5908 5909 5910 5910 5909 5908 5908 5908 5907 5908 5908 5908 5908 5909 5910 5910 5909 5909 5910 5912 5912 5913 5915 5916 5917 5918 5919 5920 5921 5922 5923 5923 5924 5924 5925 5925 5926 5926 5927 5928 5928 5929 5929 5930 5930 5930 5931 5931 5931 5932 5932 5932 5933 5933 5933 5933 5934 5934 5934 5934 5934 5935 5935 5935 5934 5934 5934 5934 5933 5933 5933 5932 5932 5932 5931 5931 5930 5929 5928 5928 5927
5900 5900 5900 5899 5898 5898 5900 5902 5905 5908 5909 5910 5910 5909 5910 5909 5908 5909 5910 5911 5911 5909 5908 5907 5907 5907 5908 5908 5908 5908 5909 5910 5910 5909 5910 5911 5912 5913 5914 5915 5916 5917 5919 5920 5921 5922 5923 5923 5924 5925 5925 5926 5926 5927 5927 5928 5928 5929 5930 5930 5931 5931 5931 5931 5932 5932 5933 5933 5933 5934 5934 5934 5934 5935 5935 5935 5935 5935 5936 5935 5935 5935 5935 5934 5934 5933 5933 5933 5932 5932 5931 5930 5930 5930 5929 5928 5928
5899 5898 5898 5898 5897 5898 5900 5902 5904 5907 5908 5909 5909 5909 5908 5908 5907 5908 5910 5911 5911 5910 5908 5907 5907 5907 5908 5908 5908 5908 5909 5909 5909 5910 5910 5911 5912 5913 5914 5915 5916 5917 5918 5920 5921 5922 5923 5924 5924 5925 5925 5926 5927 5927 5928 5928 5929 5929 5930 5931 5931 5931 5932 5932 5932 5933 5934 5934 5934 5935 5935 5935 5935 5935 5936 5936 5936 5936 5936 5935 5935 5935 5934 5934 5933 5933 5932 5932 5932 5931 5931 5930 5930 5929 5929 5928 5927
5897 5897 5898 5898 5896 5897 5899 5901 5904 5906 5908 5907 5907 5908 5907 5906 5906 5908 5909 5910 5911 5910 5909 5907 5907 5907 5907 5908 5908 5908 5908 5909 5909 5910 5910 5911 5912 5913 5914 5915 5917 5918 5919 5920 5921 5922 5923 5924 5924 5925 5926 5926 5927 5928 5928 5929 5929 5930 5930 5931 5931 5932 5932 5932 5933 5933 5934 5934 5935 5935 5936 5936 5936 5936 5937 5937 5936 5936 5936 5935 5935 5934 5934 5933 5933 5933 5932 5931 5931 5931 5930 5930 5929 5929 5928 5927 5927
5895 5896 5898 5897 5897 5897 5898 5900 5903 5905 5906 5906 5906 5907 5906 5904 5905 5907 5908 5909 5910 5911 5910 5908 5907 5907 5907 5908 5908 5908 5908 5908 5909 5909 5910 5911 5912 5913 5914 5915 5916 5917 5918 5920 5921 5922 5923 5924 5924 5925 5926 5926 5927 5928 5928 5929 5930 5930 5930 5931 5931 5932 5932 5932 5933 5933 5934 5935 5935 5936 5936 5937 5937 5937 5937 5937 5937 5936 5936 5935 5935 5934 5934 5933 5932 5932 5931 5931 5930 5930 5929 5929 5928 5928 5927 5927 5926
5893 5895 5897 5898 5897 5898 5899 5901 5904 5904 5904 5904 5904 5906 5905 5903 5904 5906 5908 5909 5909 5910 5911 5910 5908 5908 5908 5908 5908 5908 5908 5908 5908 5909 5909 5910 5912 5913 5914 5915 5916 5917 5918 5919 5920 5921 5922 5923 5924 5925 5926 5927 5927 5928 5928 5929 5930 5930 5931 5931 5931 5932 5932 5932 5933 5933 5934 5935 5935 5936 5936 5937 5937 5937 5937 5937 5936 5936 5936 5935 5934 5934 5933 5932 5932 5931 5931 5930 5929 5929 5929 5928 5927 5927 5926 5926 5925
5891 5893 5896 5898 5898 5898 5898 5901 5903 5903 5903 5902 5903 5905 5905 5903 5903 5905 5907 5908 5909 5910 5911 5911 5909 5908 5908 5908 5908 5908 5908 5908 5908 5908 5909 5910 5911 5912 5913 5914 5916 5917 5918 5919 5920 5921 5922 5923 5924 5925 5926 5927 5927 5928 5928 5929 5930 5930 5931 5931 5931 5932 5932 5932 5933 5933 5934 5935 5935 5936 5936 5937 5937 5937 5937 5936 5936 5935 5935 5935 5934 5933 5933 5932 5931 5931 5930 5929 5929 5928 5928 5927 5926 5926 5925 5925 5924
5890 5892 5895 5897 5898 5897 5898 5899 5901 5902 5902 5902 5903 5904 5904 5903 5902 5903 5905 5907 5909 5910 5911 5911 5910 5908 5908 5908 5908 5908 5908 5908 5908 5908 5909 5909 5911 5912 5913 5914 5915 5917 5918 5919 5920 5921 5922 5923 5924 5924 5925 5926 5927 5928 5928 5929 5929 5930 5930 5931 5931 5932 5932 5933 5933 5933 5934 5935 5935 5936 5936 5936 5936 5936 5936 5936 5935 5934 5934 5934 5933 5933 5932 5931 5930 5930 5929 5929 5928 5928 5927 5926 5925 5925 5925 5924 5924
5889 5891 5893 5895 5897 5897 5897 5898 5900 5901 5901 5901 5902 5903 5903 5902 5901 5902 5904 5906 5907 5909 5910 5911 5910 5909 5907 5907 5908 5908 5908 5908 5908 5908 5909 5909 5910 5912 5913 5914 5915 5916 5917 5919 5920 5921 5922 5923 5923 5924 5925 5926 5927 5928 5928 5929 5929 5930 5930 5930 5931 5931 5932 5932 5933 5933 5934 5935 5935 5936 5936 5936 5936 5936 5935 5935 5935 5934 5933 5933 5932 5932 5931 5930 5930 5929 5928 5928 5928 5927 5926 5925 5925 5924 5924 5923 5923
5886 5887 5889 5892 5895 5895 5896 5898 5898 5899 5899 5899 5901 5902 5902 5901 5900 5901 5903 5904 5906 5907 5908 5910 5910 5909 5907 5907 5907 5908 5908 5908 5908 5908 5909 5909 5910 5911 5912 5914 5915 5916 5917 5919 5920 5921 5922 5922 5923 5924 5925 5926 5926 5927 5928 5928 5929 5929 5929 5930 5930 5931 5932 5932 5932 5933 5934 5934 5935 5935 5935 5935 5935 5935 5935 5935 5934 5934 5933 5932 5932 5931 5930 5930 5929 5929 5928 5927 5927 5926 5926 5925 5924 5924 5923 5923 5922
5883 5884 5886 5889 5892 5894 5896 5895 5895 5896 5898 5899 5901 5902 5901 5900 5900 5900 5901 5903 5905 5906 5907 5908 5909 5909 5908 5906 5906 5907 5907 5908 5908 5909 5909 5910 5910 5911 5912 5913 5915 5916 5917 5918 5920 5921 5921 5922 5922 5923 5924 5925 5925 5926 5927 5927 5928 5928 5929 5929 5930 5931 5931 5932 5932 5933 5934 5934 5934 5935 5935 5935 5935 5934 5934 5934 5934 5933 5933 5932 5932 5931 5930 5930 5929 5928 5928 5927 5926 5926 5925 5924 5923 5923 5922 5922 5921
5880 5882 5884 5886 5889 5892 5894 5893 5892 5893 5896 5898 5900 5901 5901 5901 5900 5899 5900 5902 5904 5905 5905 5906 5907 5907 5907 5907 5906 5906 5906 5907 5907 5908 5909 5910 5911 5911 5912 5913 5915 5916 5917 5918 5919 5920 5921 5921 5922 5922 5923 5924 5925 5925 5926 5927 5927 5928 5928 5929 5929 5930 5931 5931 5932 5932 5933 5934 5934 5934 5934 5934 5934 5934 5934 5933 5933 5932 5932 5932 5931 5931 5930 5929 5929 5928 5927 5926 5926 5925 5924 5923 5922 5922 5921 5921 5920
5878 5879 5881 5884 5887 5890 5892 5892 5892 5893 5895 5897 5899 5900 5901 5901 5900 5898 5899 5900 5901 5902 5903 5904 5905 5906 5907 5906 5906 5906 5906 5906 5906 5907 5908 5909 5910 5911 5912 5913 5914 5915 5917 5918 5919 5920 5920 5921 5921 5921 5922 5923 5924 5925 5925 5926 5926 5927 5927 5928 5929 5930 5930 5931 5931 5932 5933 5933 5934 5934 5934 5934 5934 5934 5934 5933 5933 5932 5932 5931 5931 5930 5929 5929 5928 5927 5927 5926 5925 5924 5923 5922 5922 5921 5921 5920 5919
5876 5877 5879 5882 5885 5888 5891 5892 5892 5892 5893 5894 5896 5897 5898 5898 5898 5898 5898 5898 5899 5900 5900 5902 5903 5905 5906 5906 5906 5906 5905 5905 5905 5906 5907 5908 5909 5910 5911 5912 5913 5914 5916 5917 5919 5920 5920 5920 5921 5921 5922 5923 5924 5924 5925 5925 5926 5926 5927 5927 5928 5929 5930 5930 5931 5931 5932 5933 5933 5934 5934 5933 5933 5933 5933 5932 5932 5931 5931 5931 5930 5929 5929 5928 5928 5927 5926 5926 5925 5924 5923 5922 5921 5921 5920 5919 5918
5874 5875 5878 5881 5883 5886 5889 5890 5890 5890 5890 5891 5893 5894 5894 5895 5895 5896 5897 5897 5897 5898 5898 5899 5901 5903 5904 5905 5906 5905 5905 5904 5905 5906 5907 5908 5909 5910 5911 5912 5913 5913 5914 5915 5917 5918 5919 5920 5921 5921 5921 5922 5923 5924 5924 5924 5925 5925 5926 5926 5927 5928 5929 5930 5930 5931 5932 5932 5932 5933 5933 5933 5932 5932 5932 5931 5931 5931 5930 5930 5929 5929 5928 5927 5927 5927 5926 5925 5924 5923 5922 5922 5921 5920 5919 5918 5917
5871 5875 5878 5880 5881 5883 5885 5887 5887 5886 5887 5889 5890 5891 5892 5892 5892 5893 5894 5895 5895 5895 5896 5897 5899 5901 5903 5904 5905 5905 5904 5904 5904 5904 5906 5907 5908 5909 5910 5911 5912 5913 5913 5914 5915 5917 5918 5919 5920 5920 5920 5921 5922 5923 5923 5924 5924 5924 5925 5925 5926 5927 5928 5929 5929 5930 5931 5931 5932 5932 5932 5931 5931 5931 5930 5930 5930 5930 5930 5929 5929 5928 5927 5927 5926 5926 5926 5925 5924 5922 5921 5921 5920 5919 5918 5917 5916
5870 5875 5876 5877 5879 5880 5882 5884 5884 5884 5885 5886 5886 5888 5889 5889 5889 5891 5891 5892 5892 5892 5894 5895 5897 5898 5900 5902 5904 5904 5903 5903 5903 5903 5904 5905 5907 5908 5908 5910 5911 5912 5913 5913 5914 5915 5916 5917 5918 5918 5919 5919 5920 5921 5922 5923 5923 5923 5924 5924 5925 5926 5927 5928 5928 5929 5929 5930 5931 5931 5931 5930 5930 5930 5929 5929 5929 5929 5929 5928 5928 5927 5927 5926 5926 5926 5925 5924 5923 5922 5921 5920 5919 5918 5917 5916 5915
5869 5874 5873 5874 5877 5877 5880 5881 5881 5883 5883 5880 5881 5884 5884 5883 5886 5889 5889 5888 5889 5890 5892 5893 5894 5896 5897 5900 5902 5902 5903 5903 5903 5903 5903 5904 5905 5906 5907 5908 5909 5911 5912 5912 5913 5914 5915 5916 5916 5917 5918 5918 5918 5920 5921 5922 5922 5923 5923 5924 5924 5925 5926 5927 5927 5928 5928 5929 5929 5929 5929 5929 5929 5929 5928 5928 5928 5928 5928 5928 5927 5926 5926 5926 5926 5925 5924 5923 5922 5921 5921 5919 5918 5917 5917 5916 5915
5867 5870 5869 5871 5873 5874 5877 5876 5878 5881 5877 5874 5878 5880 5879 5879 5882 5885 5884 5884 5886 5888 5890 5891 5892 5894 5895 5897 5899 5901 5901 5902 5902 5902 5902 5902 5903 5905 5905 5906 5908 5909 5910 5911 5912 5913 5914 5914 5915 5916 5917 5917 5917 5918 5919 5920 5921 5922 5922 5923 5923 5924 5925 5925 5926 5927 5927 5927 5927 5928 5928 5928 5928 5928 5927 5927 5927 5927 5927 5927 5926 5925 5925 5925 5925 5924 5923 5922 5922 5921 5920 5919 5918 5917 5917 5916 5915
5864 5865 5865 5868 5869 5871 5873 5872 5875 5874 5868 5869 5875 5876 5876 5875 5877 5879 5879 5881 5885 5888 5888 5889 5890 5892 5893 5895 5896 5898 5900 5901 5902 5902 5901 5902 5902 5903 5904 5905 5906 5907 5909 5910 5910 5911 5912 5913 5913 5914 5916 5916 5917 5917 5917 5919 5920 5921 5921 5922 5922 5923 5923 5924 5924 5925 5926 5925 5926 5927 5927 5927 5927 5926 5926 5926 5926 5926 5926 5925 5925 5925 5925 5924 5924 5923 5922 5921 5921 5920 5919 5918 5917 5917 5916 5914 5913
5859 5860 5862 5864 5866 5868 5868 5868 5869 5864 5859 5865 5872 5874 5873 5869 5871 5875 5876 5879 5884 5885 5886 5888 5889 5890 5891 5892 5894 5896 5897 5899 5900 5900 5900 5901 5901 5902 5903 5904 5904 5905 5907 5908 5908 5909 5910 5911 5912 5912 5914 5915 5916 5916 5916 5917 5918 5919 5920 5921 5921 5922 5922 5923 5923 5924 5924 5924 5925 5925 5925 5925 5925 5925 5925 5925 5925 5925 5924 5924 5924 5924 5924 5923 5922 5922 5921 5920 5919 5919 5918 5917 5916 5915 5914 5912 5911
5854 5855 5857 5858 5860 5862 5861 5861 5861 5856 5857 5864 5870 5871 5867 5862 5867 5873 5875 5877 5880 5882 5884 5886 5887 5889 5889 5890 5892 5893 5895 5897 5898 5899 5899 5899 5900 5901 5902 5902 5902 5903 5905 5905 5906 5907 5907 5909 5910 5911 5912 5913 5914 5915 5915 5916 5916 5917 5918 5920 5920 5921 5921 5921 5922 5922 5922 5923 5923 5923 5923 5923 5923 5924 5924 5924 5924 5924 5923 5923 5923 5923 5923 5922 5921 5920 5920 5919 5919 5918 5917 5916 5915 5914 5912 5911 5909
5850 5851 5852 5852 5854 5854 5853 5855 5856 5855 5858 5863 5867 5867 5861 5859 5864 5869 5872 5875 5877 5879 5882 5884 5885 5887 5887 5888 5889 5890 5892 5894 5895 5896 5897 5898 5898 5899 5900 5900 5900 5901 5902 5903 5904 5905 5905 5906 5907 5909 5909 5910 5912 5913 5914 5914 5915 5915 5916 5918 5919 5920 5920 5920 5920 5921 5921 5921 5921 5922 5922 5922 5922 5922 5922 5922 5922 5922 5922 5922 5922 5922 5922 5921 5920 5919 5919 5918 5918 5917 5916 5915 5913 5912 5910 5909 5907
5847 5849 5849 5848 5849 5849 5851 5854 5855 5856 5858 5861 5864 5861 5855 5857 5861 5866 5870 5873 5874 5877 5879 5881 5883 5884 5885 5886 5886 5888 5889 5891 5892 5894 5895 5896 5896 5896 5897 5898 5898 5899 5900 5900 5901 5902 5903 5904 5905 5906 5907 5908 5909 5911 5912 5912 5913 5913 5914 5916 5918 5918 5919 5919 5919 5919 5919 5919 5920 5920 5920 5920 5920 5920 5921 5921 5921 5921 5921 5921 5921 5921 5920 5920 5919 5918 5918 5917 5917 5916 5915 5914 5912 5910 5909 5907 5905
5843 5846 5845 5842 5845 5849 5851 5853 5854 5856 5856 5856 5858 5855 5853 5857 5860 5863 5868 5869 5871 5874 5876 5878 5879 5881 5882 5883 5884 5885 5887 5888 5890 5891 5893 5893 5894 5894 5895 5896 5896 5897 5897 5898 5899 5900 5901 5902 5903 5904 5905 5906 5907 5908 5909 5910 5910 5911 5912 5913 5915 5916 5917 5917 5917 5917 5917 5917 5918 5918 5918 5918 5918 5918 5919 5919 5919 5919 5919 5919 5920 5919 5919 5919 5918 5917 5916 5916 5915 5915 5914 5912 5911 5909 5907 5906 5904
5839 5840 5839 5840 5845 5849 5849 5849 5851 5854 5851 5851 5853 5852 5852 5856 5857 5860 5864 5866 5868 5871 5872 5875 5877 5878 5879 5880 5881 5882 5884 5886 5887 5889 5891 5891 5891 5892 5893 5893 5894 5894 5895 5897 5898 5898 5899 5899 5900 5901 5902 5903 5904 5905 5906 5907 5907 5908 5909 5910 5912 5914 5915 5915 5914 5914 5915 5915 5916 5916 5916 5916 5916 5916 5917 5918 5918 5918 5918 5918 5918 5918 5917 5917 5917 5916 5915 5915 5914 5913 5912 5910 5909 5907 5906 5904 5903
5834 5834 5837 5841 5844 5845 5844 5844 5847 5848 5845 5845 5849 5849 5850 5852 5853 5857 5861 5863 5865 5867 5869 5872 5874 5875 5876 5877 5879 5880 5881 5883 5885 5887 5887 5887 5888 5889 5890 5890 5891 5892 5893 5895 5896 5896 5896 5897 5898 5898 5899 5900 5901 5901 5902 5903 5904 5905 5906 5908 5909 5911 5912 5912 5912 5912 5912 5913 5913 5913 5914 5914 5914 5915 5915 5916 5916 5916 5916 5916 5916 5916 5916 5915 5915 5915 5914 5913 5913 5912 5910 5909 5907 5905 5903 5902 5901
5829 5832 5835 5838 5837 5838 5839 5839 5839 5840 5840 5841 5844 5846 5846 5848 5850 5854 5858 5859 5862 5865 5867 5868 5870 5872 5873 5875 5877 5878 5879 5880 5881 5883 5884 5884 5886 5887 5887 5888 5889 5890 5891 5893 5893 5894 5894 5895 5895 5896 5896 5897 5897 5898 5899 5900 5901 5902 5903 5904 5906 5907 5908 5909 5909 5909 5910 5910 5910 5911 5911 5911 5912 5913 5913 5914 5914 5914 5915 5915 5914 5914 5914 5914 5913 5913 5913 5912 5911 5910 5909 5907 5905 5903 5901 5900 5898
5826 5827 5829 5831 5832 5833 5835 5835 5834 5836 5836 5837 5840 5841 5842 5844 5848 5851 5854 5856 5859 5862 5864 5865 5867 5869 5871 5873 5874 5876 5877 5877 5878 5880 5881 5882 5883 5884 5885 5886 5887 5888 5889 5890 5891 5892 5892 5892 5892 5893 5894 5894 5895 5896 5897 5898 5899 5900 5900 5901 5903 5904 5905 5905 5906 5906 5907 5907 5908 5908 5909 5909 5910 5910 5911 5911 5912 5912 5912 5913 5913 5913 5912 5912 5911 5911 5911 5910 5910 5908 5906 5904 5903 5901 5899 5898 5896
5821 5821 5822 5824 5827 5828 5830 5831 5831 5832 5832 5833 5836 5836 5837 5842 5845 5848 5850 5853 5856 5858 5861 5863 5864 5866 5868 5870 5872 5873 5875 5875 5875 5877 5878 5879 5880 5881 5883 5884 5885 5886 5887 5887 5888 5889 5890 5890 5890 5891 5892 5892 5893 5894 5895 5896 5897 5897 5898 5899 5900 5901 5901 5902 5902 5903 5904 5904 5905 5905 5906 5907 5907 5908 5909 5909 5910 5910 5910 5910 5911 5911 5911 5910 5910 5909 5909 5908 5907 5906 5904 5902 5901 5899 5897 5895 5894
5816 5818 5819 5821 5824 5825 5826 5825 5826 5828 5828 5829 5831 5831 5833 5839 5842 5844 5847 5851 5854 5856 5859 5861 5862 5864 5865 5867 5869 5870 5872 5873 5874 5874 5875 5876 5878 5879 5880 5881 5882 5883 5884 5885 5886 5887 5887 5888 5888 5889 5890 5891 5891 5892 5893 5894 5894 5895 5895 5896 5897 5897 5898 5898 5899 5900 5901 5901 5902 5903 5903 5904 5905 5906 5907 5907 5907 5908 5908 5908 5909 5908 5908 5908 5908 5907 5906 5905 5904 5903 5902 5900 5899 5897 5895 5893 5891